Location: ??
(35.4627°N, 139.3695°E)
Time: 07:48:14
(UTC+00:00)

ATLAS 2AS CENTAUR R/B - Pass Details

Date: 25 November 2020
Orbit: 943 x 1268 km, 63.7° (Epoch: 16 January)

Event Time Altitude Azimuth Distance (km) Brightness Sun altitude
Rises 19:33:41 0° 210° (SSW) 4,144 5.6 -23.1°
Reaches altitude 10° 19:36:25 10° 210° (SSW) 3,207 5.0 -22.5°
Maximum altitude 19:44:16 87° 300° (WNW) 1,273 3.0 -20.9°
Drops below altitude 10° 19:52:14 10° 30° (NNE) 3,244 5.4 -19.4°
Sets 19:55:01 0° 31° (NNE) 4,194 6.0 -18.8°
